Total_Precipitation_Accumulation
0.00 0.00 0.00 0.00 0.00 0.00 0.00 0.00 0.00 0.00 0.00 0.00 0.00 0.00 0.00 0.00 0.00 0.00 0.00 0.00 0.00 0.00 0.00 0.00 0.00 0.00 0.00 0.00 0.00 0.00 0.00 0.04 0.01 0.05 0.22 0.01 0.05 0.03 0.01 0.04 0.07 0.16 0.20 0.14 0.09 0.06 0.05 0.06 0.04 0.09 0.02 0.02 0.01 0.00 0.01 0.01 0.00 0.01 0.02 0.02 0.04 0.06 0.21 0.42 0.01 0.00 0.00 0.00 0.00 0.00 0.00 0.00 0.00 0.00 0.00 0.00 0.00 0.01 0.03 0.05 0.03 0.03 0.06 0.07 0.02 0.01 0.03 0.02 0.03 0.02 0.01 0.01 0.02 0.03 0.03 0.02 0.02
0.00 0.00 0.00 0.00 0.00 0.00 0.00 0.00 0.00 0.00 0.00 0.00 0.00 0.00 0.00 0.00 0.00 0.00 0.00 0.00 0.00 0.00 0.00 0.00 0.00 0.00 0.00 0.00 0.00 0.00 0.01 0.00 0.00 0.02 0.07 0.05 0.04 0.02 0.02 0.06 0.06 0.20 0.13 0.16 0.11 0.11 0.13 0.09 0.04 0.08 0.03 0.03 0.01 0.00 0.01 0.01 0.00 0.01 0.01 0.00 0.00 0.01 0.03 0.19 0.18 0.00 0.00 0.00 0.00 0.00 0.00 0.00 0.00 0.01 0.00 0.00 0.00 0.01 0.04 0.04 0.15 0.06 0.11 0.08 0.11 0.05 0.05 0.08 0.07 0.03 0.01 0.02 0.01 0.01 0.04 0.02 0.02
0.00 0.00 0.00 0.00 0.00 0.00 0.00 0.00 0.00 0.00 0.00 0.00 0.00 0.00 0.00 0.00 0.00 0.00 0.00 0.00 0.00 0.00 0.00 0.00 0.00 0.00 0.00 0.00 0.00 0.00 0.04 0.03 0.01 0.02 0.06 0.04 0.04 0.07 0.07 0.03 0.12 0.17 0.21 0.14 0.17 0.15 0.17 0.12 0.04 0.09 0.05 0.03 0.02 0.00 0.01 0.01 0.01 0.01 0.01 0.00 0.00 0.05 0.02 0.02 0.35 0.05 0.00 0.00 0.01 0.01 0.01 0.01 0.01 0.02 0.01 0.01 0.01 0.00 0.03 0.02 0.12 0.19 0.15 0.07 0.07 0.05 0.01 0.01 0.00 0.02 0.03 0.04 0.04 0.02 0.03 0.03 0.02
0.00 0.00 0.00 0.00 0.00 0.00 0.00 0.00 0.00 0.00 0.00 0.00 0.00 0.00 0.00 0.00 0.00 0.00 0.00 0.00 0.00 0.00 0.00 0.00 0.00 0.00 0.00 0.00 0.01 0.00 0.01 0.01 0.03 0.02 0.06 0.04 0.02 0.03 0.03 0.06 0.15 0.17 0.19 0.13 0.10 0.18 0.17 0.16 0.04 0.06 0.12 0.04 0.02 0.01 0.02 0.01 0.01 0.02 0.02 0.00 0.01 0.01 0.01 0.01 0.03 0.14 0.04 0.01 0.01 0.02 0.01 0.01 0.02 0.04 0.01 0.05 0.00 0.00 0.04 0.06 0.07 0.08 0.05 0.08 0.07 0.08 0.01 0.00 0.02 0.06 0.04 0.02 0.03 0.04 0.03 0.04 0.02
0.00 0.00 0.00 0.00 0.00 0.00 0.00 0.00 0.00 0.00 0.00 0.00 0.00 0.00 0.00 0.00 0.00 0.00 0.00 0.00 0.00 0.00 0.00 0.00 0.00 0.00 0.00 0.01 0.00 0.01 0.02 0.03 0.01 0.01 0.02 0.03 0.02 0.04 0.08 0.07 0.12 0.11 0.18 0.19 0.15 0.09 0.17 0.08 0.04 0.03 0.12 0.03 0.02 0.04 0.01 0.01 0.01 0.01 0.03 0.03 0.02 0.01 0.01 0.01 0.01 0.02 0.03 0.02 0.01 0.01 0.03 0.01 0.01 0.02 0.03 0.05 0.00 0.00 0.02 0.00 0.02 0.08 0.02 0.03 0.03 0.02 0.00 0.00 0.00 0.01 0.03 0.04 0.04 0.04 0.03 0.03 0.02
0.00 0.00 0.00 0.00 0.00 0.00 0.00 0.00 0.00 0.00 0.00 0.00 0.00 0.00 0.00 0.00 0.00 0.00 0.00 0.00 0.00 0.00 0.00 0.00 0.00 0.01 0.00 0.13 0.03 0.06 0.08 0.02 0.02 0.01 0.03 0.09 0.02 0.02 0.16 0.13 0.21 0.29 0.25 0.40 0.21 0.29 0.28 0.04 0.02 0.02 0.04 0.11 0.06 0.02 0.03 0.03 0.02 0.03 0.04 0.13 0.02 0.03 0.02 0.02 0.01 0.01 0.03 0.01 0.01 0.01 0.03 0.05 0.03 0.03 0.03 0.02 0.02 0.02 0.02 0.03 0.01 0.01 0.02 0.02 0.03 0.01 0.02 0.01 0.00 0.00 0.03 0.03 0.07 0.03 0.03 0.02 0.02
0.00 0.00 0.00 0.00 0.00 0.00 0.00 0.00 0.00 0.00 0.00 0.00 0.00 0.00 0.00 0.00 0.00 0.00 0.00 0.00 0.00 0.00 0.00 0.00 0.00 0.00 0.01 0.02 0.00 0.02 0.08 0.01 0.01 0.03 0.03 0.04 0.05 0.18 0.29 0.39 0.47 0.59 0.46 0.50 0.18 0.26 0.26 0.02 0.01 0.04 0.09 0.13 0.05 0.04 0.05 0.06 0.04 0.07 0.04 0.07 0.21 0.06 0.03 0.01 0.01 0.03 0.01 0.01 0.01 0.02 0.02 0.04 0.05 0.03 0.01 0.02 0.01 0.00 0.01 0.00 0.00 0.01 0.02 0.03 0.03 0.01 0.00 0.02 0.00 0.00 0.02 0.06 0.02 0.02 0.01 0.01 0.00
0.00 0.00 0.00 0.00 0.00 0.00 0.00 0.00 0.00 0.00 0.00 0.00 0.00 0.00 0.00 0.00 0.00 0.00 0.00 0.00 0.00 0.00 0.00 0.00 0.00 0.01 0.15 0.02 0.05 0.01 0.02 0.02 0.06 0.04 0.01 0.02 0.11 0.17 0.37 0.42 0.39 0.53 0.27 0.22 0.15 0.15 0.07 0.02 0.06 0.05 0.16 0.10 0.15 0.10 0.06 0.05 0.04 0.05 0.06 0.08 0.20 0.15 0.05 0.03 0.00 0.00 0.00 0.00 0.01 0.01 0.04 0.03 0.06 0.06 0.14 0.09 0.02 0.01 0.01 0.00 0.00 0.00 0.00 0.01 0.06 0.01 0.01 0.00 0.00 0.00 0.02 0.03 0.00 0.00 0.00 0.01 0.00
0.00 0.00 0.00 0.00 0.00 0.00 0.00 0.00 0.00 0.00 0.00 0.00 0.00 0.00 0.00 0.00 0.00 0.00 0.00 0.00 0.00 0.00 0.00 0.00 0.00 0.05 0.05 0.05 0.13 0.07 0.03 0.03 0.04 0.07 0.07 0.13 0.41 0.66 1.04 0.78 0.56 0.39 0.26 0.23 0.18 0.14 0.15 0.09 0.08 0.06 0.15 0.12 0.10 0.09 0.04 0.03 0.02 0.02 0.04 0.09 0.05 0.13 0.17 0.03 0.03 0.00 0.00 0.00 0.01 0.02 0.01 0.02 0.01 0.04 0.02 0.07 0.21 0.04 0.01 0.02 0.00 0.01 0.01 0.00 0.01 0.01 0.01 0.01 0.01 0.01 0.04 0.02 0.01 0.01 0.00 0.00 0.00
0.00 0.00 0.00 0.00 0.00 0.00 0.00 0.00 0.00 0.00 0.00 0.00 0.00 0.00 0.00 0.00 0.00 0.00 0.00 0.00 0.00 0.00 0.00 0.00 0.00 0.02 0.05 0.16 0.08 0.21 0.15 0.14 0.06 0.10 0.21 0.28 0.62 0.90 0.94 0.90 0.81 0.45 0.42 0.37 0.21 0.28 0.18 0.51 0.15 0.09 0.48 0.18 0.04 0.09 0.10 0.04 0.07 0.04 0.01 0.01 0.09 0.06 0.04 0.03 0.04 0.00 0.00 0.00 0.00 0.01 0.01 0.00 0.01 0.02 0.03 0.07 0.07 0.03 0.01 0.00 0.00 0.00 0.01 0.01 0.03 0.00 0.00 0.01 0.01 0.01 0.06 0.03 0.01 0.01 0.01 0.00 0.00
0.00 0.00 0.00 0.00 0.00 0.00 0.00 0.00 0.00 0.00 0.00 0.00 0.00 0.00 0.00 0.00 0.00 0.00 0.00 0.00 0.00 0.00 0.00 0.00 0.01 0.02 0.01 0.07 0.14 0.09 0.21 0.15 0.27 0.48 0.33 0.44 0.66 0.80 0.71 0.70 0.73 0.76 0.66 0.56 0.40 0.19 0.12 0.15 0.26 0.08 0.07 0.07 0.18 0.27 0.16 0.09 0.09 0.11 0.03 0.07 0.07 0.03 0.02 0.07 0.02 0.00 0.00 0.01 0.00 0.00 0.01 0.01 0.01 0.01 0.02 0.11 0.20 0.06 0.00 0.00 0.00 0.00 0.00 0.04 0.01 0.01 0.01 0.06 0.03 0.02 0.05 0.01 0.00 0.00 0.00 0.00 0.00
0.00 0.00 0.00 0.00 0.00 0.00 0.00 0.00 0.00 0.00 0.00 0.00 0.00 0.00 0.00 0.00 0.00 0.00 0.00 0.00 0.00 0.00 0.00 0.00 0.04 0.07 0.08 0.06 0.14 0.25 0.38 0.35 0.66 0.46 0.52 0.56 0.56 0.32 0.51 0.47 0.31 0.26 0.27 0.22 0.16 0.10 0.12 0.08 0.11 0.15 0.15 0.18 0.56 0.33 0.32 0.19 0.12 0.09 0.03 0.01 0.03 0.02 0.01 0.01 0.02 0.00 0.02 0.01 0.02 0.04 0.02 0.02 0.03 0.03 0.02 0.02 0.04 0.02 0.03 0.00 0.02 0.01 0.00 0.00 0.01 0.00 0.00 0.01 0.02 0.01 0.02 0.00 0.00 0.00 0.00 0.00 0.00
0.00 0.00 0.00 0.00 0.00 0.00 0.00 0.00 0.00 0.00 0.00 0.00 0.00 0.00 0.00 0.00 0.00 0.00 0.00 0.00 0.00 0.00 0.00 0.00 0.05 0.01 0.45 0.03 0.15 0.26 0.22 0.31 0.30 0.44 0.43 0.29 0.35 0.34 0.34 0.22 0.27 0.13 0.06 0.07 0.08 0.12 0.10 0.13 0.10 0.13 0.26 0.30 0.57 0.37 0.28 0.26 0.16 0.11 0.08 0.09 0.07 0.06 0.04 0.01 0.03 0.01 0.02 0.02 0.04 0.03 0.03 0.06 0.03 0.02 0.03 0.00 0.02 0.01 0.02 0.01 0.01 0.01 0.00 0.00 0.00 0.01 0.00 0.00 0.00 0.01 0.01 0.01 0.00 0.00 0.00 0.00 0.00
0.00 0.00 0.00 0.00 0.00 0.00 0.00 0.00 0.00 0.00 0.00 0.00 0.00 0.00 0.00 0.00 0.00 0.00 0.00 0.00 0.00 0.00 0.00 0.00 0.00 0.01 0.18 0.05 0.18 0.20 0.22 0.18 0.09 0.15 0.11 0.11 0.18 0.13 0.28 0.23 0.16 0.03 0.05 0.03 0.03 0.08 0.12 0.08 0.24 0.11 0.09 0.10 0.13 0.19 0.34 0.18 0.15 0.13 0.17 0.19 0.29 0.39 0.42 0.26 0.11 0.03 0.02 0.05 0.03 0.03 0.05 0.03 0.02 0.06 0.03 0.01 0.03 0.00 0.00 0.00 0.01 0.00 0.00 0.00 0.00 0.01 0.00 0.00 0.00 0.00 0.01 0.01 0.00 0.00 0.00 0.00 0.00
0.00 0.00 0.00 0.00 0.00 0.00 0.00 0.00 0.00 0.00 0.00 0.00 0.00 0.00 0.00 0.00 0.00 0.00 0.00 0.00 0.00 0.00 0.00 0.00 0.08 0.01 0.19 0.07 0.07 0.07 0.11 0.21 0.06 0.06 0.10 0.04 0.03 0.04 0.05 0.14 0.14 0.01 0.07 0.05 0.05 0.04 0.11 0.09 0.13 0.16 0.19 0.20 0.13 0.09 0.13 0.16 0.10 0.12 0.08 0.20 0.33 0.25 0.31 0.17 0.12 0.07 0.08 0.16 0.13 0.12 0.07 0.15 0.10 0.08 0.07 0.04 0.01 0.00 0.01 0.01 0.00 0.00 0.00 0.00 0.00 0.00 0.01 0.00 0.01 0.00 0.01 0.01 0.00 0.00 0.00 0.00 0.00
0.00 0.00 0.00 0.00 0.00 0.00 0.00 0.00 0.00 0.00 0.00 0.00 0.00 0.00 0.00 0.00 0.00 0.00 0.00 0.00 0.00 0.00 0.00 0.01 0.00 0.02 0.06 0.03 0.05 0.03 0.06 0.09 0.09 0.07 0.08 0.07 0.03 0.02 0.05 0.08 0.16 0.04 0.02 0.03 0.04 0.04 0.05 0.10 0.11 0.20 0.15 0.14 0.12 0.14 0.12 0.18 0.08 0.04 0.08 0.11 0.38 0.36 0.29 0.19 0.52 0.24 0.27 0.33 0.39 0.26 0.18 0.19 0.17 0.21 0.25 0.10 0.06 0.00 0.00 0.03 0.00 0.00 0.00 0.00 0.01 0.01 0.02 0.02 0.02 0.01 0.00 0.00 0.00 0.00 0.00 0.00 0.00
0.00 0.00 0.00 0.00 0.00 0.00 0.00 0.00 0.00 0.00 0.00 0.00 0.00 0.00 0.00 0.00 0.00 0.00 0.00 0.00 0.00 0.00 0.00 0.00 0.02 0.00 0.00 0.01 0.03 0.05 0.08 0.05 0.09 0.11 0.06 0.08 0.07 0.08 0.07 0.19 0.15 0.04 0.04 0.03 0.03 0.03 0.06 0.09 0.09 0.16 0.10 0.11 0.12 0.14 0.14 0.21 0.09 0.05 0.14 0.10 0.13 0.17 0.17 0.24 0.28 0.36 0.38 0.34 0.47 0.45 0.23 0.18 0.25 0.22 0.19 0.13 0.17 0.17 0.01 0.00 0.01 0.03 0.01 0.02 0.01 0.04 0.02 0.02 0.04 0.01 0.00 0.00 0.00 0.00 0.00 0.00 0.00
0.00 0.00 0.00 0.00 0.00 0.00 0.00 0.00 0.00 0.00 0.00 0.00 0.00 0.00 0.00 0.00 0.00 0.00 0.00 0.00 0.00 0.00 0.00 0.00 0.00 0.00 0.04 0.04 0.08 0.01 0.07 0.05 0.08 0.06 0.09 0.09 0.07 0.10 0.10 0.15 0.12 0.05 0.06 0.06 0.04 0.03 0.06 0.08 0.10 0.17 0.13 0.13 0.11 0.12 0.15 0.17 0.19 0.12 0.19 0.15 0.08 0.15 0.14 0.09 0.22 0.30 0.49 0.39 0.44 0.33 0.29 0.30 0.29 0.42 0.18 0.38 0.19 0.13 0.10 0.01 0.01 0.05 0.02 0.01 0.01 0.01 0.02 0.01 0.02 0.01 0.00 0.00 0.00 0.00 0.00 0.00 0.00
0.00 0.00 0.00 0.00 0.00 0.00 0.00 0.00 0.00 0.00 0.00 0.00 0.00 0.00 0.00 0.00 0.00 0.00 0.00 0.00 0.00 0.00 0.00 0.00 0.00 0.02 0.05 0.09 0.06 0.07 0.06 0.10 0.09 0.15 0.11 0.06 0.07 0.06 0.06 0.11 0.10 0.06 0.09 0.04 0.05 0.03 0.07 0.07 0.14 0.15 0.10 0.19 0.18 0.17 0.14 0.11 0.13 0.17 0.20 0.15 0.20 0.16 0.42 0.24 0.29 0.52 0.46 0.45 0.46 0.51 0.37 0.30 0.45 0.54 0.33 0.22 0.14 0.24 0.12 0.03 0.03 0.05 0.02 0.01 0.00 0.00 0.01 0.01 0.01 0.00 0.00 0.00 0.00 0.00 0.00 0.00 0.00
0.00 0.00 0.00 0.00 0.00 0.00 0.00 0.00 0.00 0.00 0.00 0.00 0.00 0.00 0.00 0.00 0.00 0.00 0.00 0.00 0.00 0.00 0.00 0.00 0.01 0.14 0.04 0.04 0.06 0.08 0.10 0.11 0.13 0.15 0.11 0.10 0.09 0.16 0.05 0.08 0.10 0.09 0.08 0.13 0.16 0.15 0.21 0.29 0.08 0.09 0.07 0.16 0.19 0.12 0.11 0.18 0.14 0.23 0.19 0.27 0.16 0.17 0.17 0.18 0.41 0.62 0.39 0.59 0.68 0.55 0.31 0.57 0.40 0.75 0.87 0.93 0.65 0.35 0.25 0.08 0.09 0.08 0.03 0.02 0.00 0.01 0.01 0.01 0.01 0.00 0.00 0.00 0.00 0.00 0.00 0.00 0.00
0.00 0.00 0.00 0.00 0.00 0.00 0.00 0.00 0.00 0.00 0.00 0.00 0.00 0.00 0.00 0.00 0.00 0.00 0.00 0.00 0.00 0.00 0.00 0.00 0.03 0.04 0.06 0.02 0.03 0.08 0.11 0.09 0.08 0.18 0.13 0.10 0.21 0.37 0.47 0.37 0.41 0.52 0.82 0.98 1.00 0.56 0.35 0.05 0.02 0.01 0.04 0.08 0.19 0.17 0.13 0.21 0.17 0.11 0.17 0.23 0.19 0.09 0.18 0.34 0.21 0.28 0.46 0.54 1.22 1.04 0.43 0.50 0.50 1.04 0.70 0.54 0.54 0.38 0.45 0.27 0.14 0.07 0.06 0.03 0.01 0.01 0.06 0.16 0.03 0.10 0.03 0.00 0.01 0.00 0.00 0.00 0.00
0.00 0.00 0.00 0.00 0.00 0.00 0.00 0.00 0.00 0.00 0.00 0.00 0.00 0.00 0.00 0.00 0.00 0.00 0.00 0.00 0.00 0.00 0.00 0.00 0.00 0.02 0.07 0.08 0.09 0.05 0.13 0.05 0.09 0.16 0.14 0.27 0.41 0.59 0.81 1.24 2.04 1.93 1.45 0.62 0.20 0.12 0.04 0.03 0.04 0.01 0.01 0.03 0.07 0.08 0.14 0.12 0.25 0.11 0.18 0.18 0.17 0.15 0.17 0.35 0.42 0.36 0.52 0.55 0.95 1.06 0.36 0.50 0.52 0.50 1.01 0.64 0.90 0.67 0.69 0.52 0.22 0.09 0.06 0.12 0.04 0.02 0.03 0.01 0.01 0.03 0.05 0.02 0.01 0.00 0.02 0.02 0.00
0.00 0.00 0.00 0.00 0.00 0.00 0.00 0.00 0.00 0.00 0.00 0.00 0.00 0.00 0.00 0.00 0.00 0.00 0.00 0.00 0.00 0.00 0.00 0.00 0.01 0.02 0.04 0.09 0.25 0.12 0.21 0.25 0.50 0.55 0.24 0.46 0.89 1.07 1.33 1.05 0.40 0.51 0.40 1.12 0.88 0.33 0.07 0.06 0.04 0.02 0.02 0.02 0.03 0.08 0.14 0.17 0.15 0.28 0.37 0.29 0.10 0.27 0.17 0.28 0.33 0.25 0.46 0.39 0.76 1.06 0.55 0.84 0.82 0.72 0.97 0.53 0.55 0.67 0.64 0.38 0.21 0.33 0.43 0.24 0.15 0.01 0.02 0.01 0.07 0.03 0.04 0.04 0.02 0.01 0.00 0.01 0.02
0.00 0.00 0.00 0.00 0.00 0.00 0.00 0.00 0.00 0.00 0.00 0.00 0.00 0.00 0.00 0.00 0.00 0.00 0.00 0.00 0.00 0.00 0.01 0.01 0.04 0.05 0.05 0.01 0.11 0.27 0.57 0.28 0.45 0.50 0.77 1.07 1.26 1.06 1.15 0.85 0.65 0.76 0.41 0.75 0.50 0.52 0.08 0.05 0.04 0.03 0.04 0.02 0.02 0.05 0.05 0.12 0.10 0.12 0.31 0.31 0.27 0.23 0.21 0.13 0.22 0.21 0.25 0.42 0.70 0.84 0.37 0.84 0.61 0.41 0.64 0.81 0.37 1.20 1.34 1.24 0.69 0.78 0.77 0.46 0.43 0.01 0.03 0.03 0.31 0.32 0.09 0.01 0.01 0.00 0.00 0.00 0.01
0.00 0.00 0.00 0.00 0.00 0.00 0.00 0.00 0.00 0.00 0.00 0.00 0.00 0.00 0.00 0.00 0.00 0.00 0.00 0.00 0.00 0.00 0.00 0.02 0.03 0.05 0.05 0.03 0.03 0.17 0.34 0.55 0.49 0.39 0.70 1.15 1.37 1.33 0.79 0.86 0.55 1.03 0.53 0.34 0.37 0.33 0.12 0.07 0.07 0.05 0.02 0.02 0.04 0.03 0.05 0.08 0.07 0.14 0.18 0.23 0.36 0.83 0.20 0.20 0.08 0.17 0.16 0.22 0.51 0.39 0.78 0.63 0.47 0.85 0.60 0.53 0.40 0.90 0.99 1.53 0.86 0.75 0.58 0.28 0.14 0.10 0.11 0.07 0.26 0.21 0.11 0.08 0.01 0.01 0.00 0.00 0.00
0.00 0.00 0.00 0.00 0.00 0.00 0.00 0.00 0.00 0.00 0.00 0.00 0.00 0.00 0.00 0.00 0.00 0.00 0.00 0.00 0.00 0.00 0.00 0.01 0.05 0.05 0.06 0.05 0.04 0.03 0.37 0.85 0.77 0.62 0.81 0.91 0.98 1.01 0.65 0.42 0.32 0.19 0.47 0.30 0.13 0.10 0.07 0.05 0.03 0.03 0.02 0.02 0.05 0.02 0.04 0.08 0.04 0.11 0.17 0.24 0.22 0.25 0.26 0.36 0.16 0.11 0.23 0.21 0.35 0.29 0.20 0.49 0.53 0.46 0.54 0.68 0.40 0.74 0.59 1.17 2.29 1.04 0.46 0.48 0.64 0.26 0.13 0.09 0.18 0.34 0.17 0.06 0.08 0.05 0.00 0.00 0.00
0.00 0.00 0.00 0.00 0.00 0.00 0.00 0.00 0.00 0.00 0.00 0.00 0.00 0.00 0.00 0.00 0.00 0.00 0.00 0.00 0.00 0.00 0.00 0.01 0.02 0.04 0.05 0.07 0.08 0.25 0.18 0.17 0.39 0.69 0.81 0.82 0.56 0.50 0.43 0.31 0.23 0.19 0.11 0.17 0.04 0.03 0.03 0.03 0.02 0.01 0.00 0.01 0.01 0.02 0.02 0.04 0.05 0.07 0.08 0.14 0.15 0.18 0.16 0.18 0.17 0.20 0.08 0.21 0.16 0.12 0.44 0.50 0.69 0.79 0.67 0.70 0.71 1.27 1.20 1.58 1.84 1.17 0.75 0.94 0.97 0.36 0.18 0.20 0.19 0.27 0.19 0.19 0.12 0.09 0.03 0.00 0.00
0.00 0.00 0.00 0.00 0.00 0.00 0.00 0.00 0.00 0.00 0.00 0.00 0.00 0.00 0.00 0.00 0.00 0.00 0.00 0.00 0.00 0.04 0.00 0.00 0.01 0.01 0.02 0.06 0.08 0.08 0.11 0.03 0.21 0.21 0.35 0.29 0.45 0.41 0.41 0.31 0.27 0.26 0.07 0.08 0.03 0.01 0.02 0.03 0.01 0.01 0.01 0.01 0.01 0.00 0.01 0.01 0.02 0.02 0.03 0.13 0.18 0.11 0.13 0.18 0.09 0.15 0.20 0.37 0.12 0.35 0.34 0.56 0.50 0.66 0.93 1.07 1.46 1.55 0.89 1.03 1.49 1.58 1.67 0.97 0.90 0.68 0.41 0.17 0.05 0.14 0.20 0.18 0.17 0.42 0.14 0.02 0.00
0.00 0.00 0.00 0.00 0.00 0.00 0.00 0.00 0.00 0.00 0.00 0.00 0.00 0.00 0.00 0.00 0.00 0.00 0.00 0.00 0.00 0.02 0.00 0.01 0.00 0.03 0.06 0.11 0.23 0.21 0.23 0.31 0.29 0.36 0.29 0.28 0.53 0.44 0.23 0.22 0.29 0.22 0.17 0.05 0.06 0.01 0.01 0.02 0.01 0.01 0.01 0.01 0.01 0.00 0.00 0.00 0.01 0.02 0.02 0.03 0.08 0.10 0.07 0.11 0.12 0.15 0.20 0.08 0.11 0.16 0.41 0.42 0.44 0.41 0.92 0.72 1.03 0.91 1.19 0.80 0.92 0.84 1.58 1.66 1.38 1.26 0.44 0.48 0.25 0.11 0.05 0.22 0.07 0.05 0.04 0.06 0.00
0.00 0.00 0.00 0.00 0.00 0.00 0.00 0.00 0.00 0.00 0.00 0.00 0.00 0.00 0.00 0.00 0.00 0.00 0.00 0.00 0.00 0.00 0.01 0.02 0.04 0.08 0.02 0.04 0.32 0.42 0.43 0.38 0.31 0.62 0.84 0.31 0.23 0.33 0.20 0.32 0.26 0.21 0.18 0.12 0.04 0.03 0.01 0.01 0.01 0.01 0.01 0.01 0.01 0.00 0.01 0.00 0.01 0.02 0.01 0.02 0.05 0.06 0.20 0.15 0.15 0.12 0.21 0.24 0.25 0.38 0.48 0.40 0.67 0.56 0.77 1.07 0.66 0.92 0.99 0.73 0.69 0.96 1.16 1.20 2.03 1.69 1.45 0.75 0.26 0.15 0.14 0.19 0.02 0.03 0.06 0.30 0.06
0.00 0.00 0.00 0.00 0.00 0.00 0.00 0.00 0.00 0.00 0.00 0.00 0.00 0.00 0.00 0.00 0.00 0.00 0.00 0.00 0.00 0.00 0.01 0.02 0.01 0.06 0.07 0.02 0.08 0.24 0.28 0.30 0.40 0.94 0.52 0.13 0.19 0.19 0.17 0.23 0.29 0.24 0.25 0.15 0.03 0.08 0.00 0.01 0.01 0.00 0.01 0.01 0.01 0.00 0.01 0.01 0.01 0.01 0.01 0.02 0.01 0.02 0.05 0.09 0.05 0.20 0.11 0.11 0.16 0.33 0.23 0.20 0.62 0.41 0.93 0.95 0.85 1.15 0.59 0.63 0.89 0.87 0.95 1.28 1.53 1.84 1.43 1.01 0.74 0.35 0.18 0.10 0.01 0.00 0.03 0.01 0.07
0.00 0.00 0.00 0.00 0.00 0.00 0.00 0.00 0.00 0.00 0.00 0.00 0.00 0.00 0.00 0.00 0.00 0.00 0.00 0.00 0.00 0.00 0.02 0.05 0.01 0.05 0.04 0.01 0.11 0.19 0.30 0.50 0.53 0.43 0.49 0.24 0.17 0.24 0.22 0.22 0.20 0.19 0.40 0.21 0.03 0.07 0.01 0.01 0.01 0.00 0.01 0.00 0.00 0.00 0.00 0.01 0.01 0.00 0.01 0.01 0.01 0.00 0.00 0.03 0.03 0.04 0.05 0.07 0.07 0.04 0.13 0.24 0.40 0.30 0.64 0.76 0.83 0.88 0.85 0.94 1.53 1.24 0.91 1.06 0.95 2.19 1.57 1.19 1.02 0.57 0.40 0.11 0.09 0.01 0.01 0.03 0.02
0.00 0.00 0.00 0.00 0.00 0.00 0.00 0.00 0.00 0.00 0.00 0.00 0.00 0.00 0.00 0.00 0.00 0.00 0.00 0.00 0.00 0.00 0.02 0.01 0.01 0.01 0.04 0.05 0.04 0.02 0.19 0.31 0.17 0.25 0.25 0.30 0.17 0.24 0.23 0.26 0.25 0.29 0.24 0.33 0.21 0.05 0.00 0.00 0.00 0.00 0.00 0.00 0.00 0.00 0.00 0.00 0.00 0.00 0.00 0.00 0.00 0.00 0.00 0.00 0.00 0.00 0.02 0.02 0.06 0.08 0.06 0.09 0.13 0.17 0.46 0.50 0.43 1.06 1.25 1.44 2.36 1.39 0.77 0.76 1.26 1.87 0.91 0.96 1.05 1.04 0.59 0.44 0.27 0.15 0.11 0.06 0.05
0.00 0.00 0.00 0.00 0.00 0.00 0.00 0.00 0.00 0.00 0.00 0.00 0.00 0.00 0.00 0.00 0.00 0.00 0.00 0.00 0.00 0.01 0.01 0.02 0.01 0.01 0.01 0.04 0.02 0.02 0.04 0.06 0.05 0.04 0.04 0.39 0.23 0.16 0.33 0.21 0.31 0.22 0.12 0.26 0.15 0.02 0.00 0.00 0.00 0.00 0.00 0.00 0.00 0.00 0.00 0.00 0.00 0.00 0.00 0.00 0.00 0.00 0.00 0.00 0.00 0.00 0.00 0.00 0.01 0.02 0.01 0.01 0.01 0.03 0.06 0.25 0.66 0.48 0.57 1.33 1.40 1.18 0.66 0.72 1.37 1.58 1.54 1.16 1.25 1.02 0.92 0.52 0.25 0.49 0.52 0.22 0.12
0.00 0.00 0.00 0.00 0.00 0.00 0.00 0.00 0.00 0.00 0.00 0.00 0.00 0.00 0.00 0.00 0.00 0.00 0.00 0.01 0.00 0.00 0.00 0.02 0.03 0.02 0.03 0.01 0.01 0.04 0.04 0.04 0.02 0.02 0.04 0.06 0.05 0.06 0.06 0.06 0.06 0.07 0.02 0.01 0.03 0.01 0.00 0.00 0.00 0.00 0.00 0.00 0.00 0.00 0.00 0.00 0.00 0.00 0.00 0.00 0.00 0.00 0.00 0.00 0.00 0.00 0.00 0.00 0.00 0.00 0.00 0.01 0.01 0.01 0.02 0.02 0.02 0.15 0.36 0.37 1.02 0.96 0.52 0.51 1.19 1.86 1.54 1.28 1.02 0.93 0.83 0.91 0.81 0.93 0.98 0.83 0.55
0.00 0.00 0.00 0.00 0.00 0.00 0.00 0.00 0.00 0.00 0.00 0.00 0.00 0.00 0.00 0.00 0.00 0.00 0.00 0.00 0.00 0.00 0.01 0.01 0.01 0.02 0.03 0.01 0.00 0.01 0.05 0.03 0.02 0.03 0.00 0.01 0.04 0.11 0.03 0.12 0.13 0.02 0.02 0.02 0.00 0.00 0.01 0.00 0.00 0.00 0.00 0.00 0.00 0.00 0.00 0.00 0.00 0.00 0.00 0.00 0.00 0.00 0.00 0.00 0.00 0.01 0.00 0.00 0.00 0.00 0.00 0.00 0.00 0.00 0.00 0.00 0.00 0.01 0.03 0.19 0.56 1.57 0.37 0.80 0.97 1.30 1.10 1.10 0.92 1.09 1.03 1.25 1.37 0.72 0.66 1.05 1.25
0.00 0.00 0.00 0.00 0.00 0.00 0.00 0.00 0.00 0.00 0.00 0.00 0.00 0.00 0.00 0.00 0.00 0.00 0.00 0.00 0.00 0.00 0.00 0.01 0.01 0.01 0.00 0.00 0.01 0.02 0.01 0.02 0.03 0.00 0.00 0.00 0.07 0.01 0.00 0.01 0.01 0.00 0.01 0.00 0.00 0.00 0.00 0.00 0.00 0.00 0.00 0.00 0.00 0.00 0.00 0.00 0.00 0.00 0.00 0.00 0.00 0.00 0.00 0.00 0.00 0.00 0.00 0.00 0.00 0.00 0.00 0.00 0.00 0.00 0.00 0.00 0.00 0.00 0.00 0.01 0.02 0.15 0.47 0.53 0.89 1.52 0.93 1.41 1.35 1.81 1.55 1.18 1.21 1.43 1.21 1.58 1.98
0.00 0.00 0.00 0.00 0.00 0.00 0.00 0.00 0.00 0.00 0.00 0.00 0.00 0.00 0.00 0.00 0.00 0.00 0.00 0.00 0.00 0.00 0.00 0.00 0.00 0.00 0.00 0.01 0.02 0.02 0.04 0.01 0.03 0.01 0.00 0.00 0.03 0.08 0.01 0.00 0.00 0.00 0.00 0.01 0.00 0.00 0.00 0.00 0.00 0.00 0.00 0.00 0.00 0.00 0.00 0.00 0.00 0.00 0.00 0.00 0.00 0.00 0.00 0.00 0.00 0.00 0.00 0.00 0.00 0.00 0.00 0.00 0.00 0.00 0.00 0.00 0.00 0.00 0.00 0.00 0.00 0.01 0.02 0.14 0.42 0.68 0.70 1.05 1.26 1.13 1.27 1.54 1.49 1.41 1.33 1.16 1.93
0.00 0.00 0.00 0.00 0.00 0.00 0.00 0.00 0.00 0.00 0.00 0.00 0.00 0.00 0.00 0.00 0.00 0.00 0.00 0.00 0.00 0.00 0.00 0.00 0.00 0.00 0.00 0.00 0.00 0.02 0.02 0.00 0.00 0.00 0.02 0.01 0.00 0.03 0.06 0.15 0.13 0.00 0.00 0.00 0.00 0.00 0.00 0.00 0.00 0.00 0.00 0.00 0.00 0.00 0.00 0.00 0.00 0.00 0.00 0.00 0.00 0.00 0.00 0.00 0.00 0.00 0.00 0.00 0.00 0.00 0.00 0.00 0.00 0.00 0.00 0.00 0.00 0.00 0.00 0.00 0.00 0.01 0.03 0.03 0.08 0.10 0.12 0.30 0.58 0.69 1.17 1.30 1.68 1.30 1.01 1.17 1.50
0.00 0.00 0.01 0.00 0.00 0.00 0.02 0.00 0.00 0.00 0.00 0.00 0.00 0.00 0.00 0.00 0.00 0.00 0.00 0.00 0.00 0.00 0.00 0.00 0.00 0.00 0.00 0.00 0.00 0.02 0.03 0.02 0.01 0.02 0.01 0.01 0.00 0.01 0.02 0.11 0.14 0.16 0.01 0.00 0.00 0.00 0.00 0.00 0.00 0.00 0.00 0.00 0.00 0.00 0.00 0.00 0.00 0.00 0.00 0.00 0.00 0.00 0.00 0.00 0.00 0.00 0.00 0.00 0.00 0.00 0.00 0.00 0.00 0.00 0.00 0.00 0.00 0.00 0.00 0.00 0.00 0.00 0.01 0.00 0.00 0.03 0.07 0.11 0.27 0.32 0.71 1.06 1.68 1.14 0.66 1.33 0.75
0.00 0.00 0.00 0.00 0.00 0.00 0.00 0.03 0.00 0.00 0.00 0.00 0.00 0.00 0.00 0.00 0.00 0.00 0.00 0.00 0.00 0.00 0.00 0.00 0.00 0.00 0.00 0.00 0.00 0.00 0.03 0.01 0.02 0.00 0.01 0.01 0.02 0.01 0.00 0.01 0.03 0.00 0.02 0.00 0.00 0.00 0.00 0.00 0.00 0.00 0.00 0.00 0.00 0.00 0.00 0.00 0.00 0.00 0.00 0.00 0.00 0.00 0.00 0.00 0.00 0.00 0.00 0.00 0.00 0.00 0.00 0.00 0.00 0.00 0.00 0.00 0.00 0.00 0.00 0.00 0.00 0.00 0.00 0.00 0.02 0.06 0.04 0.03 0.06 0.29 0.20 0.59 0.77 0.95 0.75 0.58 1.02
0.00 0.00 0.00 0.00 0.00 0.00 0.00 0.00 0.00 0.00 0.02 0.00 0.00 0.00 0.00 0.01 0.00 0.00 0.00 0.00 0.00 0.00 0.00 0.00 0.00 0.00 0.00 0.00 0.00 0.00 0.00 0.07 0.01 0.02 0.00 0.01 0.02 0.00 0.02 0.00 0.00 0.00 0.00 0.00 0.00 0.00 0.00 0.00 0.00 0.00 0.00 0.00 0.00 0.00 0.00 0.00 0.00 0.00 0.00 0.00 0.00 0.00 0.00 0.00 0.00 0.00 0.00 0.00 0.00 0.00 0.00 0.00 0.00 0.00 0.00 0.00 0.00 0.00 0.00 0.00 0.00 0.00 0.00 0.00 0.00 0.01 0.02 0.01 0.04 0.02 0.09 0.24 0.23 0.47 0.65 0.62 0.78
0.00 0.02 0.00 0.00 0.00 0.00 0.00 0.00 0.00 0.00 0.00 0.04 0.00 0.00 0.00 0.00 0.00 0.00 0.00 0.00 0.00 0.00 0.00 0.00 0.00 0.00 0.00 0.00 0.00 0.00 0.00 0.00 0.01 0.01 0.01 0.00 0.04 0.01 0.07 0.01 0.00 0.00 0.00 0.00 0.00 0.00 0.00 0.00 0.00 0.00 0.00 0.00 0.00 0.00 0.00 0.00 0.00 0.00 0.00 0.00 0.00 0.00 0.00 0.00 0.00 0.00 0.00 0.00 0.00 0.00 0.00 0.00 0.00 0.00 0.00 0.00 0.00 0.00 0.00 0.00 0.00 0.00 0.00 0.00 0.00 0.01 0.01 0.00 0.01 0.06 0.07 0.21 0.17 0.24 0.35 0.32 0.38
0.02 0.01 0.00 0.00 0.00 0.00 0.00 0.00 0.00 0.01 0.00 0.01 0.00 0.00 0.00 0.01 0.01 0.00 0.00 0.00 0.00 0.00 0.00 0.00 0.00 0.00 0.00 0.00 0.00 0.00 0.00 0.00 0.00 0.00 0.01 0.02 0.02 0.03 0.00 0.02 0.02 0.00 0.00 0.00 0.00 0.00 0.00 0.00 0.04 0.07 0.00 0.00 0.00 0.00 0.00 0.00 0.00 0.00 0.00 0.00 0.00 0.00 0.00 0.00 0.00 0.00 0.00 0.00 0.00 0.00 0.00 0.00 0.00 0.00 0.00 0.00 0.00 0.00 0.00 0.00 0.00 0.00 0.00 0.00 0.00 0.00 0.00 0.00 0.00 0.01 0.03 0.03 0.02 0.06 0.15 0.15 0.21
0.01 0.00 0.00 0.00 0.00 0.03 0.00 0.00 0.01 0.04 0.01 0.01 0.00 0.00 0.00 0.00 0.01 0.00 0.00 0.00 0.00 0.01 0.00 0.00 0.00 0.00 0.00 0.00 0.00 0.00 0.00 0.00 0.00 0.00 0.00 0.00 0.01 0.02 0.02 0.02 0.02 0.00 0.00 0.01 0.01 0.00 0.09 0.53 0.51 0.19 0.00 0.00 0.00 0.01 0.00 0.00 0.00 0.00 0.00 0.00 0.00 0.00 0.00 0.00 0.00 0.00 0.00 0.00 0.00 0.00 0.00 0.00 0.00 0.00 0.00 0.00 0.00 0.00 0.00 0.00 0.00 0.00 0.00 0.00 0.00 0.00 0.00 0.00 0.00 0.01 0.02 0.06 0.04 0.06 0.07 0.10 0.10
0.00 0.00 0.00 0.00 0.00 0.00 0.00 0.01 0.00 0.03 0.01 0.01 0.01 0.05 0.00 0.02 0.02 0.00 0.00 0.00 0.01 0.04 0.00 0.00 0.00 0.00 0.00 0.00 0.00 0.00 0.00 0.00 0.00 0.01 0.00 0.00 0.00 0.01 0.01 0.02 0.03 0.09 0.06 0.03 0.20 0.33 0.63 0.58 0.50 0.02 0.01 0.00 0.00 0.00 0.00 0.00 0.00 0.00 0.00 0.00 0.00 0.00 0.00 0.00 0.00 0.00 0.00 0.00 0.00 0.00 0.00 0.00 0.00 0.00 0.00 0.00 0.00 0.00 0.00 0.00 0.00 0.00 0.00 0.00 0.00 0.00 0.00 0.00 0.00 0.00 0.01 0.03 0.02 0.04 0.08 0.12 0.10
0.00 0.00 0.00 0.01 0.00 0.01 0.00 0.00 0.01 0.01 0.02 0.00 0.01 0.01 0.00 0.03 0.06 0.02 0.08 0.00 0.00 0.00 0.00 0.00 0.00 0.00 0.00 0.00 0.00 0.00 0.00 0.00 0.00 0.00 0.00 0.00 0.00 0.00 0.02 0.11 0.09 0.05 0.49 0.52 0.84 0.84 0.73 0.72 0.02 0.00 0.00 0.00 0.00 0.00 0.00 0.00 0.00 0.00 0.00 0.00 0.00 0.00 0.00 0.00 0.00 0.00 0.00 0.00 0.00 0.00 0.00 0.00 0.00 0.00 0.00 0.00 0.00 0.00 0.00 0.00 0.00 0.00 0.00 0.00 0.00 0.00 0.00 0.00 0.00 0.00 0.00 0.00 0.03 0.05 0.04 0.07 0.11
0.00 0.00 0.01 0.00 0.01 0.01 0.01 0.04 0.03 0.07 0.00 0.02 0.01 0.01 0.06 0.04 0.02 0.01 0.01 0.00 0.00 0.00 0.04 0.00 0.00 0.00 0.00 0.00 0.00 0.00 0.00 0.00 0.00 0.00 0.00 0.00 0.00 0.00 0.02 0.09 0.18 0.81 0.96 0.82 1.07 1.79 1.81 0.48 0.03 0.00 0.00 0.00 0.00 0.00 0.00 0.00 0.00 0.00 0.00 0.00 0.00 0.00 0.00 0.00 0.00 0.00 0.00 0.00 0.00 0.00 0.00 0.00 0.00 0.00 0.00 0.00 0.00 0.00 0.00 0.00 0.00 0.00 0.00 0.00 0.00 0.00 0.00 0.00 0.00 0.00 0.00 0.01 0.01 0.02 0.03 0.03 0.03
0.00 0.00 0.01 0.09 0.05 0.02 0.05 0.07 0.04 0.04 0.00 0.10 0.01 0.02 0.01 0.00 0.00 0.01 0.00 0.00 0.00 0.00 0.00 0.01 0.00 0.00 0.00 0.00 0.00 0.00 0.00 0.00 0.00 0.00 0.00 0.00 0.00 0.00 0.00 0.00 0.04 0.16 0.86 1.17 1.50 1.54 1.24 1.04 0.82 0.11 0.00 0.00 0.00 0.00 0.00 0.00 0.00 0.00 0.00 0.00 0.00 0.00 0.00 0.00 0.00 0.00 0.00 0.00 0.00 0.00 0.00 0.00 0.00 0.00 0.00 0.00 0.00 0.00 0.00 0.00 0.00 0.00 0.00 0.00 0.00 0.00 0.00 0.00 0.00 0.00 0.00 0.00 0.01 0.03 0.04 0.05 0.03
0.00 0.01 0.09 0.04 0.08 0.03 0.01 0.04 0.03 0.07 0.04 0.07 0.09 0.03 0.01 0.02 0.02 0.00 0.00 0.00 0.00 0.00 0.00 0.00 0.00 0.00 0.00 0.00 0.00 0.00 0.01 0.00 0.00 0.00 0.01 0.00 0.00 0.00 0.00 0.01 0.18 0.19 0.31 0.63 0.70 0.83 1.01 1.13 1.53 0.89 0.29 0.01 0.00 0.00 0.00 0.00 0.00 0.00 0.00 0.00 0.00 0.00 0.00 0.00 0.00 0.00 0.00 0.00 0.00 0.00 0.00 0.00 0.00 0.00 0.00 0.00 0.00 0.00 0.00 0.00 0.00 0.00 0.00 0.00 0.00 0.00 0.00 0.00 0.00 0.00 0.00 0.00 0.01 0.01 0.02 0.01 0.03
0.01 0.00 0.01 0.12 0.04 0.05 0.01 0.06 0.02 0.02 0.07 0.08 0.02 0.00 0.00 0.00 0.14 0.00 0.00 0.00 0.00 0.00 0.00 0.00 0.00 0.00 0.00 0.00 0.00 0.00 0.00 0.00 0.00 0.00 0.00 0.00 0.00 0.00 0.00 0.20 0.00 0.22 0.58 0.43 0.48 0.63 0.88 1.11 1.31 0.81 0.78 0.36 0.04 0.03 0.01 0.01 0.00 0.00 0.00 0.00 0.00 0.00 0.00 0.00 0.00 0.00 0.00 0.00 0.00 0.00 0.00 0.00 0.00 0.00 0.00 0.00 0.00 0.00 0.00 0.00 0.00 0.00 0.00 0.00 0.00 0.00 0.00 0.00 0.00 0.00 0.00 0.00 0.00 0.00 0.01 0.01 0.02
0.01 0.01 0.00 0.05 0.00 0.02 0.07 0.04 0.01 0.01 0.02 0.02 0.01 0.00 0.01 0.16 0.02 0.00 0.00 0.01 0.01 0.00 0.00 0.00 0.00 0.00 0.00 0.00 0.00 0.00 0.01 0.00 0.00 0.00 0.00 0.00 0.00 0.00 0.00 0.00 0.00 0.01 0.01 0.01 0.14 0.74 1.15 2.00 1.99 1.36 1.31 0.66 0.17 0.14 0.03 0.03 0.01 0.01 0.02 0.01 0.00 0.00 0.00 0.00 0.00 0.00 0.00 0.00 0.00 0.00 0.00 0.00 0.00 0.00 0.00 0.00 0.00 0.00 0.00 0.00 0.00 0.00 0.00 0.00 0.00 0.00 0.00 0.00 0.00 0.00 0.00 0.00 0.00 0.00 0.00 0.01 0.03
0.10 0.00 0.06 0.04 0.02 0.01 0.03 0.00 0.00 0.00 0.00 0.00 0.00 0.02 0.01 0.01 0.00 0.00 0.00 0.02 0.01 0.01 0.02 0.02 0.00 0.00 0.01 0.01 0.02 0.05 0.06 0.02 0.01 0.11 0.37 0.36 0.31 0.32 0.49 0.31 0.08 0.00 0.00 0.01 0.21 0.64 0.70 1.01 0.79 0.65 0.70 0.42 0.45 1.36 0.21 0.12 0.04 0.02 0.01 0.00 0.00 0.00 0.00 0.00 0.00 0.00 0.00 0.00 0.00 0.00 0.00 0.00 0.00 0.00 0.00 0.00 0.00 0.00 0.00 0.00 0.00 0.00 0.00 0.00 0.00 0.00 0.00 0.00 0.00 0.00 0.00 0.00 0.00 0.00 0.00 0.00 0.00
0.00 0.02 0.03 0.00 0.00 0.01 0.01 0.04 0.06 0.07 0.03 0.04 0.01 0.00 0.03 0.01 0.09 0.01 0.00 0.00 0.00 0.00 0.00 0.00 0.02 0.11 0.43 0.28 0.11 0.17 0.11 0.20 0.51 0.72 0.68 0.30 0.30 0.33 0.28 0.05 0.00 0.00 0.00 0.00 0.06 0.34 0.72 0.95 0.39 0.67 0.63 0.43 0.77 1.11 0.56 0.04 0.02 0.02 0.01 0.00 0.00 0.01 0.00 0.00 0.00 0.00 0.00 0.00 0.00 0.00 0.00 0.00 0.00 0.00 0.00 0.00 0.00 0.00 0.00 0.00 0.00 0.00 0.00 0.00 0.00 0.00 0.00 0.00 0.00 0.00 0.00 0.00 0.00 0.00 0.00 0.00 0.00
0.01 0.01 0.03 0.01 0.06 0.07 0.06 0.00 0.00 0.01 0.00 0.07 0.00 0.03 0.02 0.04 0.12 0.02 0.02 0.01 0.00 0.00 0.00 0.00 0.00 0.00 0.00 0.02 0.11 0.14 0.16 0.22 0.34 0.31 0.47 0.35 0.23 0.23 0.18 0.13 0.03 0.00 0.00 0.00 0.00 0.00 0.04 0.08 0.07 0.21 0.80 0.89 1.07 1.15 0.47 0.16 0.05 0.02 0.01 0.01 0.00 0.00 0.00 0.00 0.00 0.00 0.00 0.00 0.00 0.00 0.00 0.00 0.00 0.00 0.00 0.00 0.00 0.00 0.00 0.00 0.00 0.00 0.00 0.00 0.00 0.00 0.00 0.00 0.00 0.00 0.00 0.00 0.00 0.00 0.00 0.00 0.00
0.00 0.00 0.00 0.00 0.00 0.00 0.11 0.11 0.15 0.02 0.09 0.01 0.02 0.01 0.07 0.04 0.05 0.00 0.08 0.02 0.01 0.00 0.00 0.00 0.00 0.00 0.00 0.00 0.01 0.00 0.00 0.01 0.00 0.02 0.03 0.05 0.08 0.09 0.07 0.03 0.01 0.00 0.00 0.00 0.00 0.00 0.00 0.01 0.02 0.07 0.27 0.94 0.91 0.73 0.64 0.22 0.19 0.04 0.02 0.01 0.00 0.00 0.01 0.02 0.04 0.00 0.00 0.00 0.00 0.00 0.00 0.00 0.00 0.00 0.00 0.00 0.00 0.00 0.00 0.00 0.00 0.00 0.00 0.00 0.00 0.00 0.00 0.00 0.00 0.00 0.00 0.00 0.00 0.00 0.00 0.00 0.00
0.04 0.01 0.01 0.02 0.01 0.01 0.01 0.04 0.04 0.12 0.16 0.06 0.09 0.05 0.06 0.12 0.02 0.02 0.03 0.04 0.01 0.02 0.04 0.00 0.00 0.00 0.00 0.00 0.00 0.00 0.00 0.00 0.00 0.00 0.00 0.00 0.00 0.00 0.00 0.01 0.00 0.00 0.01 0.00 0.01 0.00 0.00 0.01 0.01 0.01 0.07 0.21 0.12 0.27 0.51 0.60 0.44 0.22 0.05 0.04 0.05 0.02 0.02 0.04 0.03 0.03 0.02 0.01 0.00 0.01 0.00 0.00 0.00 0.00 0.00 0.00 0.00 0.00 0.00 0.00 0.00 0.00 0.00 0.00 0.00 0.00 0.00 0.00 0.00 0.00 0.00 0.00 0.00 0.00 0.00 0.00 0.00
0.03 0.07 0.12 0.10 0.10 0.14 0.27 0.22 0.01 0.08 0.08 0.06 0.10 0.03 0.08 0.07 0.01 0.03 0.03 0.01 0.03 0.01 0.05 0.02 0.00 0.01 0.01 0.00 0.00 0.00 0.00 0.00 0.00 0.00 0.00 0.00 0.00 0.00 0.00 0.01 0.00 0.01 0.00 0.01 0.01 0.02 0.01 0.02 0.02 0.02 0.03 0.02 0.01 0.03 0.05 0.18 0.35 0.25 0.20 0.21 0.05 0.05 0.04 0.01 0.02 0.03 0.01 0.04 0.03 0.01 0.04 0.02 0.01 0.00 0.00 0.00 0.00 0.02 0.03 0.00 0.02 0.01 0.00 0.00 0.00 0.00 0.00 0.00 0.00 0.00 0.00 0.00 0.00 0.00 0.00 0.00 0.00